Waarnemingen

Advertentie
Mijn weer
Arjeplog, Zweden (2124): temperatuur & dauwpunt: 14.01.2019 12:00:00 - 20.01.2019 12:00:00 (CET)Arjeplog, Zweden (2124): windsnelheid & windstoten: 14.01.2019 12:00:00 - 20.01.2019 12:00:00 (CET)Arjeplog, Zweden (2124): windrichting: 14.01.2019 12:00:00 - 20.01.2019 12:00:00 (CET)Arjeplog, Zweden (2124): luchtdruk: 14.01.2019 12:00:00 - 20.01.2019 12:00:00 (CET)Arjeplog, Zweden (2124): zicht: 14.01.2019 12:00:00 - 20.01.2019 12:00:00 (CET)Arjeplog, Zweden (2124): neerslag: 14.01.2019 12:00:00 - 20.01.2019 12:00:00 (CET)
Datum & Tijd tt [°C] td [°C] ff [km/u] ff [kn] fx [km/u] fx [kn] dd ppp [hPa] vv [km] rr [mm]
20.01.2019 12:00:00 -22,2 -24,9 - - 2 1 N 1013,0 10 0,0
20.01.2019 11:00:00 -23,2 -25,7 0 0 3 1 N 1012,9 29 0,0
20.01.2019 10:00:00 -23,6 -26,2 0 0 3 2 N 1012,9 37 0,0
20.01.2019 09:00:00 -22,8 -25,3 0 0 3 1 N 1012,3 50 0,0
20.01.2019 08:00:00 -23,0 -25,5 0 0 3 1 N 1011,8 50 0,0
20.01.2019 07:00:00 -22,1 -24,5 0 0 4 2 N 1011,5 47 0,0
20.01.2019 06:00:00 -22,5 -24,9 0 0 4 2 N 1011,2 50 0,0
20.01.2019 05:00:00 -22,9 -25,0 0 0 3 2 N 1010,8 50 0,0
20.01.2019 04:00:00 -22,7 -25,1 0 0 3 1 N 1010,3 50 0,0
20.01.2019 03:00:00 -24,6 -27,2 0 0 2 1 N 1010,1 50 0,0
20.01.2019 02:00:00 -24,7 -27,4 0 0 2 1 N 1009,6 42 0,0
20.01.2019 01:00:00 -24,0 -26,3 0 0 2 1 N 1009,1 50 0,0
20.01.2019 00:00:00 -24,0 -26,6 0 0 4 2 N 1008,7 50 0,0
19.01.2019 23:00:00 -24,2 -26,5 0 0 3 1 N 1007,9 44 0,0
19.01.2019 22:00:00 -23,2 -25,4 0 0 3 2 N 1007,2 43 0,0
19.01.2019 21:00:00 -23,3 -25,6 0 0 3 2 N 1006,4 34 0,0
19.01.2019 20:00:00 -22,8 -25,4 0 0 5 3 N 1005,7 25 0,0
19.01.2019 19:00:00 -21,8 -24,2 0 0 3 2 N 1005,1 36 0,0
19.01.2019 18:00:00 -20,7 -22,8 0 0 3 2 N 1004,5 50 0,0
19.01.2019 17:00:00 -19,7 -21,7 0 0 4 2 N 1004,0 50 0,0
19.01.2019 16:00:00 -21,0 -23,3 0 0 5 3 N 1003,7 50 0,0
19.01.2019 15:00:00 -21,4 -23,9 0 0 4 2 N 1003,1 32 0,0
19.01.2019 14:00:00 -20,1 -22,6 0 0 4 2 N 1002,6 16 0,0
19.01.2019 13:00:00 -19,4 -21,7 0 0 4 2 N 1001,9 41 0,0
19.01.2019 12:00:00 -18,8 -21,0 0 0 4 2 N 1001,6 46 0,0
19.01.2019 11:00:00 -20,4 -22,5 2 1 4 2 OZO 1001,5 39 0,0
19.01.2019 10:00:00 -22,3 -24,8 0 0 4 2 N 1001,3 50 0,0
19.01.2019 09:00:00 -22,6 -25,1 3 1 4 2 O 1001,2 50 0,0
19.01.2019 08:00:00 -23,3 -25,8 0 0 5 3 N 1000,9 26 0,0
19.01.2019 07:00:00 -24,1 -26,8 2 1 6 3 ONO 1000,7 50 0,0
19.01.2019 06:00:00 -23,0 -25,6 0 0 4 2 N 1000,8 50 0,0
19.01.2019 05:00:00 -23,5 -25,8 0 0 5 3 N 1001,2 50 0,0
19.01.2019 04:00:00 -23,9 -26,6 0 0 4 2 N 1001,2 34 0,0
19.01.2019 03:00:00 -22,6 -25,0 0 0 6 4 N 1001,2 50 0,0
19.01.2019 02:00:00 -23,1 -25,9 0 0 5 3 N 1001,4 50 0,0
19.01.2019 01:00:00 -21,2 -23,5 3 2 6 3 ZW 1001,5 50 0,0
19.01.2019 00:00:00 -24,2 -26,9 3 2 4 2 OZO 1001,9 50 0,0
18.01.2019 23:00:00 -23,7 -26,3 0 0 4 2 N 1001,6 50 0,0
18.01.2019 22:00:00 -23,1 -25,6 0 0 4 2 N 1001,1 50 0,0
18.01.2019 21:00:00 -23,2 -26,0 0 0 4 2 N 1000,8 50 0,0
18.01.2019 20:00:00 -21,7 -24,1 0 0 4 2 N 1000,2 48 0,0
18.01.2019 19:00:00 -20,7 -23,1 2 1 4 2 O 999,9 27 0,0
18.01.2019 18:00:00 -21,1 -23,4 0 0 4 2 N 999,5 8 0,0
18.01.2019 17:00:00 -22,1 -24,5 0 0 4 2 N 999,4 21 0,0
18.01.2019 16:00:00 -22,8 -25,4 0 0 5 3 N 999,4 50 0,0
18.01.2019 15:00:00 -22,5 -25,0 0 0 5 3 N 998,9 33 0,0
18.01.2019 14:00:00 -20,5 -22,8 0 0 4 2 N 998,4 16 0,0
18.01.2019 13:00:00 -21,4 -24,1 0 0 4 2 N 998,0 42 0,0
18.01.2019 12:00:00 -23,7 -26,4 0 0 4 2 N 998,2 26 0,0
18.01.2019 11:00:00 -24,3 -27,0 0 0 4 2 N 997,9 17 0,0
18.01.2019 10:00:00 -24,5 -27,2 3 2 5 3 O 997,5 30 0,0
18.01.2019 09:00:00 -23,1 -25,6 0 0 3 2 N 996,9 - 0,0
18.01.2019 08:00:00 -25,2 -27,9 0 0 4 2 N 996,8 9 0,0
18.01.2019 07:00:00 -25,2 -28,1 0 0 4 2 N 996,3 14 0,0
18.01.2019 06:00:00 -25,2 -28,1 0 0 4 2 N 996,2 30 0,0
18.01.2019 05:00:00 -24,5 -27,4 0 0 4 2 N 995,8 25 0,1
18.01.2019 04:00:00 -23,2 -25,8 0 0 2 1 N 995,3 4,2 0,0
18.01.2019 03:00:00 -24,0 -26,6 0 0 4 2 N 995,2 3,4 0,0
18.01.2019 02:00:00 -25,3 -28,0 0 0 4 2 N 994,9 50 0,0
18.01.2019 01:00:00 -26,8 -29,7 3 2 5 3 O 994,7 50 0,0
18.01.2019 00:00:00 -27,0 -29,9 0 0 3 1 N 994,5 50 0,0
17.01.2019 23:00:00 -26,9 -29,7 0 0 3 2 N 994,1 44 0,0
17.01.2019 22:00:00 -28,1 -31,0 2 1 3 2 O 994,0 5 0,0
17.01.2019 21:00:00 -29,9 -33,0 2 1 3 2 ONO 993,9 34 0,0
17.01.2019 20:00:00 -29,8 -32,9 0 0 5 3 N 993,6 30 0,0
17.01.2019 19:00:00 -29,2 -32,2 0 0 3 1 N 993,4 13 0,0
17.01.2019 18:00:00 -29,5 -32,6 0 0 4 2 N 993,1 8 0,0
17.01.2019 17:00:00 -28,8 -32,0 0 0 2 1 N 993,0 23 0,0
17.01.2019 16:00:00 -27,6 -30,7 0 0 1 1 N 992,5 22 0,0
17.01.2019 15:00:00 -27,3 -30,2 0 0 3 2 N 992,2 22 0,0
17.01.2019 14:00:00 -27,5 -30,4 0 0 4 2 N 992,2 3,5 0,0
17.01.2019 13:00:00 -27,3 -30,5 0 0 3 2 N 992,6 10 0,0
17.01.2019 12:00:00 -27,4 -30,3 0 0 3 1 N 992,7 16 0,0
17.01.2019 11:00:00 -28,2 -31,1 0 0 1 1 N 992,9 4,6 0,0
17.01.2019 10:00:00 -27,1 -30,0 0 0 3 2 N 992,6 - 0,0
17.01.2019 09:00:00 -27,5 -30,4 2 1 4 2 O 992,6 3,0 0,0
17.01.2019 08:00:00 -26,6 -29,4 0 0 3 2 N 992,4 - 0,0
17.01.2019 07:00:00 -27,7 -30,6 0 0 3 2 N 992,3 - 0,0
17.01.2019 06:00:00 -29,1 -32,1 0 0 4 2 N 992,7 - 0,0
17.01.2019 05:00:00 -30,1 -33,1 0 0 3 2 N 993,0 - 0,0
17.01.2019 04:00:00 -30,7 -33,8 0 0 3 1 N 993,5 - 0,0
17.01.2019 03:00:00 -31,1 -34,2 0 0 3 1 N 993,5 1,2 0,1
17.01.2019 02:00:00 -31,0 -34,4 0 0 3 2 N 993,6 - 0,0
17.01.2019 01:00:00 -31,0 -34,1 2 1 3 2 O 993,9 - 0,0
17.01.2019 00:00:00 -31,4 -34,6 0 0 4 2 N 994,2 3,2 0,0
16.01.2019 23:00:00 -31,3 -34,6 0 0 4 2 N 994,5 19 0,0
16.01.2019 22:00:00 -30,7 -34,0 2 1 3 2 OZO 994,5 1,7 0,0
16.01.2019 21:00:00 -30,6 -33,7 0 0 3 1 N 994,7 - 0,0
16.01.2019 20:00:00 -30,0 -33,1 0 0 3 1 N 994,5 - 0,0
16.01.2019 19:00:00 -30,1 -33,2 0 0 4 2 N 994,6 1,4 0,0
16.01.2019 18:00:00 -30,4 -33,5 2 1 4 2 ONO 994,6 - 0,0
16.01.2019 17:00:00 -29,5 -32,5 0 0 4 2 N 994,8 - 0,0
16.01.2019 16:00:00 -29,2 -32,2 3 2 4 2 O 995,1 - 0,0
16.01.2019 15:00:00 -28,8 -31,8 0 0 3 2 N 995,4 - 0,0
16.01.2019 14:00:00 -28,4 -31,4 0 0 3 1 N 995,5 2,1 0,0
16.01.2019 13:00:00 -28,2 -31,1 0 0 4 2 N 995,8 - 0,0
16.01.2019 12:00:00 -27,8 -30,7 3 1 4 2 O 995,8 - 0,0
16.01.2019 11:00:00 -28,3 -31,2 0 0 4 2 N 996,2 - 0,0
16.01.2019 10:00:00 -28,9 -31,9 0 0 3 2 N 996,4 1,1 0,0
16.01.2019 09:00:00 -28,7 -31,7 0 0 5 3 N 996,4 - 0,0
16.01.2019 08:00:00 -27,8 -30,7 0 0 3 2 N 996,4 1,2 0,0
16.01.2019 07:00:00 -27,2 -30,0 2 1 3 2 WZW 996,2 - 0,0
16.01.2019 06:00:00 -27,4 -30,2 0 0 4 2 N 996,2 - 0,0
16.01.2019 05:00:00 -26,6 -29,6 0 0 3 2 N 996,2 - 0,0
16.01.2019 04:00:00 -25,8 -28,5 0 0 3 1 N 996,3 - 0,0
16.01.2019 03:00:00 -24,6 -27,2 0 0 3 2 N 996,2 - 0,0
16.01.2019 02:00:00 -24,0 -26,6 0 0 3 1 N 996,2 2,0 0,0
16.01.2019 01:00:00 -23,7 -26,3 0 0 3 1 N 996,1 - 0,0
16.01.2019 00:00:00 -22,3 -24,9 0 0 2 1 N 996,0 - 0,0
15.01.2019 23:00:00 -21,8 -24,3 0 0 3 2 N 995,6 28 0,0
15.01.2019 22:00:00 -20,3 -22,6 0 0 5 3 N 995,2 - 0,1
15.01.2019 21:00:00 -20,5 -22,8 0 0 2 1 N 994,8 6 0,0
15.01.2019 20:00:00 -19,0 -21,0 0 0 3 2 N 994,4 32 0,0
15.01.2019 19:00:00 -17,5 -19,7 0 0 3 1 N 994,1 33 0,0
15.01.2019 18:00:00 -16,3 -18,2 0 0 3 2 N 994,1 27 0,0
15.01.2019 17:00:00 -16,5 -18,4 0 0 3 2 N 994,0 11 0,0
15.01.2019 16:00:00 -17,2 -19,1 0 0 4 2 N 993,9 0,7 0,0
15.01.2019 15:00:00 -19,1 -21,3 0 0 3 1 N 993,8 25 0,0
15.01.2019 14:00:00 -18,3 -20,3 0 0 3 1 N 993,3 9 0,0
15.01.2019 13:00:00 -19,2 -21,4 0 0 5 3 N 993,5 0,7 0,0
15.01.2019 12:00:00 -20,2 -22,3 0 0 2 1 N 993,7 2,3 0,0
15.01.2019 11:00:00 -22,0 -24,4 0 0 4 2 N 993,9 - 0,0
15.01.2019 10:00:00 -22,4 -24,9 2 1 4 2 O 993,8 - 0,0
15.01.2019 09:00:00 -21,5 -23,9 3 1 5 3 ONO 993,9 2,6 0,0
15.01.2019 08:00:00 -21,9 -24,3 0 0 4 2 N 993,9 0,6 0,0
15.01.2019 07:00:00 -22,0 -24,4 2 1 5 3 O 993,8 0,7 0,0
15.01.2019 06:00:00 -21,9 -24,3 0 0 4 2 N 993,8 0,3 0,0
15.01.2019 05:00:00 -21,4 -23,8 3 2 4 2 O 993,8 - 0,0
15.01.2019 04:00:00 -20,1 -22,2 0 0 2 1 N 993,5 2,7 0,0
15.01.2019 03:00:00 -19,1 -21,1 0 0 3 2 N 993,2 - 0,0
15.01.2019 02:00:00 -18,6 -20,8 0 0 2 1 N 992,9 24 0,2
15.01.2019 01:00:00 -18,0 -20,0 0 0 4 2 N 992,5 49 0,0
15.01.2019 00:00:00 -16,7 -18,6 0 0 4 2 N 992,1 46 0,0
14.01.2019 23:00:00 -16,3 -18,0 3 2 6 3 OZO 991,8 50 0,0
14.01.2019 22:00:00 -15,1 -16,6 4 2 8 4 O 991,1 50 0,0
14.01.2019 21:00:00 -13,4 -15,4 0 0 8 4 N 990,3 50 0,0
14.01.2019 20:00:00 -9,3 -13,8 6 3 25 14 NNO 989,1 50 0,0
14.01.2019 19:00:00 -9,5 -13,6 5 3 21 11 N 988,5 50 0,0
14.01.2019 18:00:00 -9,6 -13,5 9 5 19 10 NNW 987,7 50 0,0
14.01.2019 17:00:00 -9,9 -14,3 8 4 23 13 N 987,0 50 0,0
14.01.2019 16:00:00 -9,7 -14,3 7 4 22 12 N 986,2 50 0,0
14.01.2019 15:00:00 -9,9 -14,9 7 4 25 14 N 985,3 50 0,0
14.01.2019 14:00:00 -9,8 -14,8 10 5 23 12 NNW 984,3 50 0,0
14.01.2019 13:00:00 -9,3 -14,2 10 6 22 12 NNW 983,4 50 0,0
14.01.2019 12:00:00 -9,6 -14,4 11 6 26 14 NNW 982,5 50 0,0

tt = temperatuur
td = dauwpunt
ff = windsnelheid
fx = windstoten
dd = windrichting
ppp = luchtdruk
vv = zicht
rr = neerslag

Weerstations in de omgeving